Regional Weather Roundup
Issued by NWS Albany, NY

Home | Current Version | Previous Version | Graphics & Text | Print | Product List | Glossary Off
Versions: 1 2 3 4 5 6 7 8 9 10 11 12 13 14 15 16 17 18 19 20 21 22 23 24 25 26 27

000
ASUS41 KALY 210310
RWRALY

NEW YORK STATE HOURLY WEATHER ROUNDUP
NATIONAL WEATHER SERVICE ALBANY NY
1100 PM EDT SUN APR 20 2014

NOTE: "FAIR" INDICATES FEW OR NO CLOUDS BELOW 12,000 FEET WITH NO
SIGNIFICANT WEATHER AND/OR NO OBSTRUCTIONS TO VISIBILITY.

NYZ032-033-038>043-046>054-057>066-NYZ062>081-210400-
EAST


CITY           SKY/WX    TMP DP  RH WIND       PRES   REMARKS
ALBANY         PTCLDY    53  24  32 S18G24    30.28F
GLENS FALLS    CLEAR     41  28  60 CALM      30.26F
POUGHKEEPSIE   CLEAR     48  28  46 S5        30.34F
NEWBURGH       CLEAR     45  30  57 CALM      30.35F
MONTGOMERY     CLEAR     42  33  70 CALM      30.34F
WHITE PLAINS   CLEAR     42  31  64 CALM      30.35F
ISLIP          PTCLDY    41  26  55 NE3       30.34F
NEW YORK CITY  PTCLDY    47  20  34 E7        30.36F
CENTRAL PARK   CLEAR     47  24  40 VRB3      30.38F
$$

NYZ005>009-017-018-044>046-055-056-210400-
CENTRAL


CITY           SKY/WX    TMP DP  RH WIND       PRES   REMARKS
FULTON         PTCLDY    57  25  29 SE3       30.17F
SYRACUSE       MOCLDY    55  29  36 SE5       30.18F
ROME           PTCLDY    50  27  40 SE5       30.23S
ELMIRA         CLEAR     54  31  41 SW7       30.22F
BINGHAMTON     PTCLDY    52  28  39 S8        30.24F
MONTICELLO     PTCLDY    43  27  52 S5        30.34S
$$

NYZ026>034-041>043-210400-
NORTH


CITY           SKY/WX    TMP DP  RH WIND       PRES   REMARKS
WATERTOWN      PTCLDY    47  33  58 CALM      30.16F
FORT DRUM      NOT AVBL
MASSENA        PTCLDY    44  33  65 CALM      30.18F
SARANAC LAKE   MOCLDY    34  25  69 CALM      30.19F
PLATTSBURGH    MOCLDY    52  23  32 SW3       30.19F
$$

NYZ001>004-010>016-019>021-210400-
WEST


CITY           SKY/WX    TMP DP  RH WIND       PRES   REMARKS
BUFFALO        PTCLDY    51  33  50 N3        30.16F
DUNKIRK        CLEAR     43  32  65 CALM      30.16F
JAMESTOWN      CLEAR     57  19  23 S8        30.18F
WELLSVILLE     CLEAR     56  21  25 S12G20    30.21F
ROCHESTER      PTCLDY    47  33  58 CALM      30.16S
PENN YAN       CLEAR     57  30  35 S9        30.18F
$$

             KEY
       WCI = WIND CHILL INDEX
       VSB = VISIBILITY
       HX  = HEAT INDEX
$$



USA.gov is the U.S. government's official web portal to all federal, state and local government web resources and services.